COSMOS 2143 DEB, 57724

Orbit data source: Space-Track

COSMOS 2143 DEB, 57724 is space debris in LEO originally from a launch on Thu, 16 May 1991 UTC launched from the Plesetsk Missile And Space Complex (PKMTR). Debris objects in space refer to the collection of defunct objects orbiting the Earth. Examples of debris include non-operational satellites, rocket bodies, and fragments generated from explosions, collisions, or faulty payload assembly.

Loading next visibility...
Identifier
57724, 1991-033M
Orbit
LEO
Country
Flag of CISCIS
Related business
Manufacturer
NPO PM
Mission
Spacecraft
Bus & Motor
Unknown
Mass
Unknown
Launch date (UTC)
1991-05-16 (35 years ago)
Launch vehicle
Unknown
Launch site
Plesetsk Missile And Space Complex (PKMTR)
Object type
Payload
Rocket body
Debris
Shape & HBR
Unknown shape, 0.1 m
Radar Cross Section
Medium (>0.1 m² and <1 m²)

Expand to show TLE details & history
Last TLE update: 2 days ago

TLE from 2 days ago
0 COSMOS 2143 DEB
1 57724U 91033M   26171.26222515  .00000985  00000-0  46333-2 0  9996
2 57724  82.5027 282.7932 0025661 176.4866 183.6417 12.74216052135922
Epoch: 2026-06-20T06:17Z
TLE epoch observation values (Epoch: 2026-06-20T06:17:36.252Z)
Latitude
-0.00002°
Longitude
-80.08723°
Altitude
1,387.391 km
Speed
7.157 km/s
True Right ascension
18h 51m 10s
True Declination
0° 00' 00"
Sunlit
Object was in full shadow at epoch
Visualization orbit readout
Latitude
Unknown
Longitude
Unknown
Altitude
Unknown
Speed
Unknown
Apparent Right ascension
Unknown
Apparent Declination
Unknown
Sunlit
N/A
Visualization observer readout
Local Sidereal Time
00:50:16
Azimuth
Unknown
Elevation
Unknown
Doppler factor
Unknown
Orbital elements
Apogee altitude
1,381.982 km
Perigee altitude
1,342.258 km
Semi-major axis
7,740.257 km
Eccentricity
0.00257
Inclination
82.5027°
RAAN
282.7932°
Arg. of periapsis
176.4866°
True anomaly
183.62308°
Mean anomaly
183.6417°
Eccentric anomaly
183.63239°
Mean motion
3.18721 °/min
Orbital period
112.95 mins
BSTAR
0.0046333
Loading maneuver chart data...
Computing Atmospheric mass density...
Loading historical data...
Loading historical data...
Loading historical data...
Loading historical data...
Loading historical data...
Loading historical data...
Loading historical data...

Documentation

Showing up to 5 results
|